When you browse on this site, cookies collect data to enhance your experience and personalize the content and advertising you see.
Visit our Privacy Policy to learn more. By continuing to use the site, you agree to this use of cookies and data.
  • In Deutschland
  • Länderverzeichnis
  • Für 7 Tage
  • Wassertemperatur
  • Wetterkarte
  • Widgets
  • user-avatar
    Anmelden

    Stündliche Wetter Michalow

    Heute, 2 Juni, Dienstag

    Zeit Temperatur Niederschläge Wind Luftdruck Luftfeuchtigkeit
    00:00 +9°C° 0.4 mm 3 m/S 752 mmHg 88%
    01:00 +9°C° 0.4 mm 3 m/S 752 mmHg 91%
    02:00 +8°C° 0 mm 3 m/S 751 mmHg 91%
    03:00 +8°C° 0 mm 3 m/S 751 mmHg 92%
    04:00 +7°C° 0 mm 3 m/S 751 mmHg 93%
    05:00 +8°C° 0 mm 4 m/S 751 mmHg 86%
    06:00 +10°C° 0 mm 4 m/S 751 mmHg 79%
    07:00 +10°C° 0 mm 5 m/S 751 mmHg 72%
    08:00 +13°C° 0 mm 5 m/S 751 mmHg 67%
    09:00 +14°C° 0 mm 6 m/S 750 mmHg 61%
    10:00 +15°C° 0 mm 6 m/S 750 mmHg 55%
    11:00 +16°C° 0 mm 7 m/S 750 mmHg 54%
    12:00 +16°C° 0 mm 7 m/S 749 mmHg 54%
    13:00 +17°C° 0 mm 7 m/S 749 mmHg 53%
    14:00 +17°C° 0.2 mm 6 m/S 749 mmHg 56%
    15:00 +16°C° 0.2 mm 6 m/S 748 mmHg 58%
    16:00 +16°C° 0.2 mm 6 m/S 748 mmHg 61%
    17:00 +15°C° 0.2 mm 5 m/S 748 mmHg 66%
    18:00 +14°C° 0.2 mm 4 m/S 747 mmHg 70%
    19:00 +13°C° 0.2 mm 4 m/S 747 mmHg 75%
    20:00 +12°C° 0 mm 3 m/S 747 mmHg 79%
    21:00 +11°C° 0 mm 3 m/S 747 mmHg 83%
    22:00 +10°C° 0 mm 3 m/S 747 mmHg 87%
    23:00 +9°C° 0 mm 3 m/S 747 mmHg 88%

    Morgen, 3 Juni, Mittwoch

    Zeit Temperatur Niederschläge Wind Luftdruck Luftfeuchtigkeit
    00:00 +8°C° 0 mm 3 m/S 746 mmHg 90%
    01:00 +8°C° 0 mm 2 m/S 746 mmHg 92%
    02:00 +8°C° 0 mm 2 m/S 746 mmHg 92%
    03:00 +7°C° 0 mm 2 m/S 745 mmHg 92%
    04:00 +7°C° 0 mm 2 m/S 745 mmHg 92%
    05:00 +8°C° 0 mm 3 m/S 745 mmHg 88%
    06:00 +10°C° 0 mm 3 m/S 745 mmHg 83%
    07:00 +11°C° 0 mm 3 m/S 745 mmHg 79%
    08:00 +11°C° 0.1 mm 4 m/S 745 mmHg 79%
    09:00 +11°C° 0.1 mm 4 m/S 745 mmHg 78%
    10:00 +12°C° 0.1 mm 4 m/S 744 mmHg 78%
    11:00 +13°C° 0.1 mm 4 m/S 744 mmHg 74%
    12:00 +14°C° 0.1 mm 4 m/S 744 mmHg 70%
    13:00 +15°C° 0.1 mm 4 m/S 744 mmHg 66%
    14:00 +15°C° 0.4 mm 4 m/S 743 mmHg 67%
    15:00 +15°C° 0.4 mm 4 m/S 743 mmHg 67%
    16:00 +17°C° 0.4 mm 4 m/S 743 mmHg 67%
    17:00 +15°C° 0.1 mm 4 m/S 742 mmHg 71%
    18:00 +14°C° 0.1 mm 3 m/S 742 mmHg 76%
    19:00 +14°C° 0.1 mm 2 m/S 742 mmHg 81%
    20:00 +13°C° 0 mm 2 m/S 742 mmHg 84%
    21:00 +12°C° 0 mm 2 m/S 742 mmHg 87%
    22:00 +10°C° 0 mm 2 m/S 742 mmHg 91%
    23:00 +9°C° 0 mm 2 m/S 742 mmHg 91%

    übermorgen, 4 Juni, Donnerstag

    Zeit Temperatur Niederschläge Wind Luftdruck Luftfeuchtigkeit
    00:00 +9°C° 0 mm 2 m/S 742 mmHg 92%
    01:00 +8°C° 0 mm 2 m/S 742 mmHg 93%
    02:00 +9°C° 0 mm 1 m/S 742 mmHg 93%
    03:00 +9°C° 0 mm 1 m/S 741 mmHg 93%
    04:00 +9°C° 0 mm 1 m/S 741 mmHg 93%
    05:00 +10°C° 0 mm 1 m/S 741 mmHg 88%
    06:00 +12°C° 0 mm 1 m/S 741 mmHg 83%
    07:00 +14°C° 0 mm 1 m/S 741 mmHg 78%
    08:00 +15°C° 0.1 mm 2 m/S 741 mmHg 71%
    09:00 +17°C° 0.1 mm 2 m/S 741 mmHg 64%
    10:00 +18°C° 0.1 mm 2 m/S 740 mmHg 57%
    11:00 +19°C° 0.2 mm 2 m/S 740 mmHg 55%
    12:00 +19°C° 0.2 mm 2 m/S 740 mmHg 54%
    13:00 +20°C° 0.2 mm 2 m/S 740 mmHg 53%
    14:00 +20°C° 0.1 mm 2 m/S 740 mmHg 52%
    15:00 +20°C° 0.1 mm 2 m/S 739 mmHg 51%
    16:00 +22°C° 0.1 mm 1 m/S 739 mmHg 51%
    17:00 +20°C° 0 mm 1 m/S 739 mmHg 57%
    18:00 +19°C° 0 mm 1 m/S 739 mmHg 63%
    19:00 +18°C° 0 mm 1 m/S 739 mmHg 68%
    20:00 +16°C° 0 mm 2 m/S 739 mmHg 72%
    21:00 +15°C° 0 mm 2 m/S 739 mmHg 76%
    22:00 +13°C° 0 mm 3 m/S 739 mmHg 80%
    23:00 +12°C° 0 mm 3 m/S 739 mmHg 82%

    5 Juni, Freitag

    Zeit Temperatur Niederschläge Wind Luftdruck Luftfeuchtigkeit
    00:00 +12°C° 0 mm 3 m/S 739 mmHg 84%
    01:00 +11°C° 0 mm 3 m/S 738 mmHg 86%
    02:00 +11°C° 0 mm 3 m/S 738 mmHg 86%
    03:00 +11°C° 0 mm 4 m/S 738 mmHg 86%
    04:00 +11°C° 0 mm 4 m/S 737 mmHg 85%
    05:00 +13°C° 0 mm 4 m/S 737 mmHg 83%
    06:00 +14°C° 0 mm 5 m/S 737 mmHg 81%
    07:00 +16°C° 0 mm 5 m/S 737 mmHg 79%
    08:00 +17°C° 0 mm 5 m/S 737 mmHg 77%
    09:00 +19°C° 0 mm 5 m/S 737 mmHg 76%
    10:00 +20°C° 0 mm 5 m/S 737 mmHg 74%
    11:00 +21°C° 0 mm 5 m/S 737 mmHg 72%
    12:00 +21°C° 0 mm 5 m/S 736 mmHg 70%
    13:00 +21°C° 0 mm 4 m/S 736 mmHg 68%
    14:00 +22°C° 0.7 mm 4 m/S 736 mmHg 70%
    15:00 +22°C° 0.7 mm 4 m/S 736 mmHg 71%
    16:00 +23°C° 0.7 mm 4 m/S 736 mmHg 72%
    17:00 +22°C° 0.9 mm 4 m/S 736 mmHg 76%
    18:00 +21°C° 0.9 mm 3 m/S 736 mmHg 80%
    19:00 +20°C° 0.9 mm 3 m/S 737 mmHg 84%
    20:00 +19°C° 0.5 mm 3 m/S 737 mmHg 87%
    21:00 +17°C° 0.5 mm 3 m/S 737 mmHg 89%
    22:00 +16°C° 0.5 mm 3 m/S 738 mmHg 92%
    23:00 +16°C° 0.1 mm 3 m/S 738 mmHg 93%

    6 Juni, Samstag

    Zeit Temperatur Niederschläge Wind Luftdruck Luftfeuchtigkeit
    00:00 +14°C° 0.1 mm 4 m/S 738 mmHg 93%
    01:00 +14°C° 0.1 mm 4 m/S 738 mmHg 94%
    02:00 +13°C° 1.6 mm 5 m/S 739 mmHg 94%
    03:00 +12°C° 1.6 mm 5 m/S 739 mmHg 94%
    04:00 +10°C° 1.6 mm 6 m/S 740 mmHg 94%
    05:00 +10°C° 0.7 mm 6 m/S 740 mmHg 93%
    06:00 +10°C° 0.7 mm 5 m/S 740 mmHg 92%
    07:00 +10°C° 0.7 mm 5 m/S 741 mmHg 90%
    08:00 +12°C° 0 mm 5 m/S 741 mmHg 85%
    09:00 +13°C° 0 mm 5 m/S 742 mmHg 81%
    10:00 +14°C° 0 mm 4 m/S 742 mmHg 76%
    11:00 +15°C° 0.1 mm 4 m/S 742 mmHg 70%
    12:00 +17°C° 0.1 mm 4 m/S 743 mmHg 65%
    13:00 +18°C° 0.1 mm 3 m/S 743 mmHg 60%
    14:00 +19°C° 0.1 mm 3 m/S 743 mmHg 59%
    15:00 +19°C° 0.1 mm 3 m/S 743 mmHg 58%
    16:00 +19°C° 0.1 mm 3 m/S 743 mmHg 57%
    17:00 +18°C° 0.1 mm 3 m/S 743 mmHg 63%
    18:00 +17°C° 0.1 mm 2 m/S 744 mmHg 69%
    19:00 +16°C° 0.1 mm 2 m/S 744 mmHg 75%
    20:00 +15°C° 0 mm 2 m/S 744 mmHg 77%
    21:00 +14°C° 0 mm 2 m/S 745 mmHg 79%
    22:00 +13°C° 0 mm 2 m/S 745 mmHg 82%
    23:00 +12°C° 0 mm 2 m/S 745 mmHg 83%

    7 Juni, Sonntag

    Zeit Temperatur Niederschläge Wind Luftdruck Luftfeuchtigkeit
    00:00 +12°C° 0 mm 2 m/S 745 mmHg 84%
    01:00 +12°C° 0 mm 2 m/S 745 mmHg 85%
    02:00 +10°C° 0 mm 2 m/S 745 mmHg 85%
    03:00 +10°C° 0 mm 2 m/S 745 mmHg 86%
    04:00 +11°C° 0 mm 1 m/S 745 mmHg 86%
    05:00 +13°C° 0 mm 2 m/S 746 mmHg 81%
    06:00 +14°C° 0 mm 2 m/S 746 mmHg 76%
    07:00 +16°C° 0 mm 2 m/S 746 mmHg 71%
    08:00 +18°C° 0 mm 2 m/S 746 mmHg 65%
    09:00 +19°C° 0 mm 3 m/S 746 mmHg 60%
    10:00 +20°C° 0 mm 3 m/S 746 mmHg 55%
    11:00 +21°C° 0 mm 3 m/S 746 mmHg 52%
    12:00 +21°C° 0 mm 3 m/S 746 mmHg 50%
    13:00 +22°C° 0 mm 3 m/S 746 mmHg 48%
    14:00 +22°C° 0 mm 3 m/S 746 mmHg 49%
    15:00 +22°C° 0 mm 3 m/S 746 mmHg 51%
    16:00 +22°C° 0 mm 3 m/S 746 mmHg 53%
    17:00 +21°C° 0 mm 2 m/S 746 mmHg 59%
    18:00 +20°C° 0 mm 2 m/S 746 mmHg 65%
    19:00 +19°C° 0 mm 2 m/S 746 mmHg 72%
    20:00 +18°C° 0 mm 2 m/S 747 mmHg 74%
    21:00 +17°C° 0 mm 2 m/S 747 mmHg 76%
    22:00 +16°C° 0 mm 2 m/S 747 mmHg 78%
    23:00 +16°C° 0.2 mm 2 m/S 747 mmHg 80%
    Mehr zeigen